Weather History for St. Johns, AZ

Change the Weather History Date:

Thursday, January 16, 2014

  Actual Average (KSOW) Record (KSOW)
Temperature  
Mean Temperature 34 °F -  
Max Temperature 50 °F 45 °F 66 °F (2000)
Min Temperature 17 °F 28 °F -2 °F (1992)
Degree Days  
Heating Degree Days 32    
Moisture  
Dew Point 8 °F    
Average Humidity 37    
Maximum Humidity 67    
Minimum Humidity 7    
Precipitation  
Precipitation 0.00 in - - ()
Sea Level Pressure  
Sea Level Pressure 30.29 in    
Wind  
Wind Speed 3 mph (West)    
Max Wind Speed 15 mph    
Max Gust Speed -    
Visibility 10 miles    
Events      
Averages and records for this station are not official NWS values.
T = Trace of Precipitation, MM = Missing Value Source: NWS Daily Summary

Daily Weather History Graph

Daily Weather History Graph

Search for Another Location

Airport:

Trip Planner

Search our weather history database for the weather conditions in past years. The results will help you decide how hot, cold, wet, or windy it might be!

Date:

Astronomy

Jan. 16, 2014 Rise Set
Actual Time 7:23 AM MST 5:31 PM MST
Civil Twilight 6:56 AM MST 5:58 PM MST
Nautical Twilight 6:25 AM MST 6:29 PM MST
Astronomical Twilight 5:55 AM MST 6:59 PM MST
Moon 6:21 PM MST (1/16) 7:22 AM MST (1/16)
Length of Visible Light 11h 02m
Length of Day
10h 07m
Full, 100% of the Moon is Illuminated
Jan 16
Full
Jan 23
Last Quarter
Jan 30
New
Feb 6
First Quarter
Feb 14
Full

Hourly Weather History & Observations

Time (MST) Temp. Windchill Dew Point Humidity Pressure Visibility Wind Dir Wind Speed Gust Speed Precip Events Conditions
12:54 AM 27.0 °F - 8.1 °F 45% 30.26 in 10.0 mi Calm Calm - N/A   Clear
1:54 AM 25.0 °F 19.3 °F 7.0 °F 46% 30.26 in 10.0 mi SSE 4.6 mph - N/A   Clear
2:54 AM 21.9 °F - 7.0 °F 53% 30.27 in 10.0 mi Calm Calm - N/A   Clear
3:54 AM 17.1 °F - 5.0 °F 59% 30.28 in 10.0 mi Calm Calm - N/A   Clear
4:54 AM 19.0 °F 11.1 °F 6.1 °F 57% 30.27 in 10.0 mi East 5.8 mph - N/A   Clear
5:54 AM 14.0 °F - 3.9 °F 64% 30.35 in 10.0 mi Calm Calm - N/A   Clear
6:54 AM 16.0 °F - 5.0 °F 62% 30.33 in 10.0 mi Calm Calm - N/A   Clear
7:54 AM 19.0 °F - 7.0 °F 59% 30.36 in 10.0 mi Calm Calm - N/A   Clear
8:54 AM 26.1 °F 21.9 °F 10.0 °F 51% 30.36 in 10.0 mi NE 3.5 mph - N/A   Clear
9:54 AM 34.0 °F 29.8 °F 12.0 °F 40% 30.36 in 10.0 mi NNE 4.6 mph - N/A   Clear
10:54 AM 39.0 °F 36.8 °F 12.9 °F 34% 30.33 in 10.0 mi Variable 3.5 mph - N/A   Clear
11:54 AM 44.1 °F 40.1 °F 12.9 °F 28% 30.29 in 10.0 mi West 6.9 mph - N/A   Clear
12:54 PM 46.9 °F - 12.0 °F 24% 30.25 in 10.0 mi NW 8.1 mph - N/A   Clear
1:54 PM 48.0 °F - 10.9 °F 22% 30.23 in 10.0 mi NW 5.8 mph - N/A   Clear
2:54 PM 50.0 °F - 9.0 °F 19% 30.23 in 10.0 mi NW 5.8 mph - N/A   Clear
3:54 PM 52.0 °F - 8.1 °F 17% 30.23 in 10.0 mi West 6.9 mph - N/A   Clear
4:54 PM 50.0 °F - 8.1 °F 18% 30.24 in 10.0 mi West 4.6 mph - N/A   Clear
5:54 PM 37.0 °F 30.4 °F 7.0 °F 29% 30.32 in 10.0 mi West 9.2 mph - N/A   Clear
6:54 PM 37.0 °F 31.6 °F 8.1 °F 30% 30.32 in 10.0 mi WSW 6.9 mph - N/A   Clear
7:54 PM 36.0 °F 33.3 °F 8.1 °F 31% 30.32 in 10.0 mi SW 3.5 mph - N/A   Clear
8:54 PM 33.1 °F 28.7 °F 8.1 °F 35% 30.31 in 10.0 mi SSW 4.6 mph - N/A   Clear
9:54 PM 30.0 °F - 8.1 °F 40% 30.30 in 10.0 mi Calm Calm - N/A   Clear
10:54 PM 28.9 °F 23.9 °F 7.0 °F 40% 30.29 in 10.0 mi South 4.6 mph - N/A   Clear
11:54 PM 27.0 °F 21.6 °F 6.1 °F 41% 30.28 in 10.0 mi SSW 4.6 mph - N/A   Clear